Change the Weather History Date:

Saturday, March 16, 2013

  Actual Average (KTIK) Record (KTIK)
Temperature  
Mean Temperature 68 °F -  
Max Temperature 80 °F 58 °F 79 °F (2013)
Min Temperature 53 °F 38 °F 30 °F (2001)
Cooling Degree Days 2    
Growing Degree Days 18 (Base 50)    
Moisture  
Dew Point 51 °F    
Average Humidity 53    
Maximum Humidity 68    
Minimum Humidity 39    
Precipitation  
Precipitation 0.00 in - - ()
Sea Level Pressure  
Sea Level Pressure 29.77 in    
Wind  
Wind Speed 11 mph (South)    
Max Wind Speed 21 mph    
Max Gust Speed 26 mph    
Visibility 10 miles    
Events      
Averages and records for this station are not official NWS values.
T = Trace of Precipitation, MM = Missing Value Source: NWS Daily Summary

Daily Weather History Graph

Daily Weather History Graph

Search for Another Location

Airport or City:

Trip Planner

Search our weather history database for the weather conditions in past years. The results will help you decide how hot, cold, wet, or windy it might be!

Date:

Astronomy

Mar. 16, 2013 Rise Set
Actual Time 7:36 AM CDT 7:36 PM CDT
Civil Twilight 7:11 AM CDT 8:01 PM CDT
Nautical Twilight 6:41 AM CDT 8:31 PM CDT
Astronomical Twilight 6:12 AM CDT 9:01 PM CDT
Moon 10:18 AM CDT (3/16) No Moon Set
Length of Visible Light 12h 50m
Length of Day
11h 59m
Waxing Crescent, 23% of the Moon is Illuminated
Mar 16
Waxing Crescent
Mar 19
First Quarter
Mar 27
Full
Apr 2
Last Quarter
Apr 10
New

Hourly Weather History & Observations

Time (CDT) Temp. Heat Index Dew Point Humidity Pressure Visibility Wind Dir Wind Speed Gust Speed Precip Events Conditions
12:15 AM 71.6 °F - 50.0 °F 46% 29.80 in 10.0 mi South 15.0 mph - N/A   Clear
12:35 AM 71.6 °F - 50.0 °F 46% 29.80 in 10.0 mi South 11.5 mph 21.9 mph N/A   Clear
12:55 AM 69.8 °F - 50.0 °F 49% 29.80 in 10.0 mi South 12.7 mph 19.6 mph N/A   Clear
1:15 AM 68.0 °F - 48.2 °F 49% 29.79 in 10.0 mi SSW 12.7 mph - N/A   Clear
1:35 AM 68.0 °F - 50.0 °F 52% 29.79 in 10.0 mi SSW 13.8 mph - N/A   Clear
1:55 AM 68.0 °F - 50.0 °F 52% 29.79 in 10.0 mi SSW 12.7 mph - N/A   Clear
2:15 AM 68.0 °F - 50.0 °F 52% 29.79 in 10.0 mi SSW 11.5 mph 19.6 mph N/A   Clear
2:35 AM 66.2 °F - 50.0 °F 56% 29.78 in 10.0 mi South 11.5 mph 16.1 mph N/A   Clear
3:15 AM 66.2 °F - 50.0 °F 56% 29.77 in 10.0 mi SSW 11.5 mph 16.1 mph N/A   Clear
3:35 AM 64.4 °F - 50.0 °F 59% 29.77 in 10.0 mi SSW 10.4 mph - N/A   Clear
3:55 AM 66.2 °F - 50.0 °F 56% 29.77 in 10.0 mi SSW 11.5 mph - N/A   Clear
4:15 AM 64.4 °F - 50.0 °F 59% 29.76 in 10.0 mi South 11.5 mph - N/A   Clear
4:35 AM 64.4 °F - 50.0 °F 59% 29.76 in 10.0 mi SSW 11.5 mph 18.4 mph N/A   Clear
4:55 AM 64.4 °F - 50.0 °F 59% 29.75 in 10.0 mi South 11.5 mph - N/A   Clear
5:15 AM 64.4 °F - 50.0 °F 59% 29.75 in 10.0 mi South 12.7 mph - N/A   Clear
5:35 AM 64.4 °F - 50.0 °F 59% 29.75 in 10.0 mi South 11.5 mph - N/A   Clear
5:55 AM 64.4 °F - 50.0 °F 59% 29.75 in 10.0 mi South 12.7 mph - N/A   Clear
6:15 AM 62.6 °F - 50.0 °F 63% 29.75 in 10.0 mi South 13.8 mph - N/A   Clear
6:35 AM 62.6 °F - 48.2 °F 59% 29.75 in 10.0 mi South 13.8 mph - N/A   Clear
6:55 AM 62.6 °F - 48.2 °F 59% 29.76 in 10.0 mi South 12.7 mph 21.9 mph N/A   Clear
7:15 AM 60.8 °F - 46.4 °F 59% 29.76 in 10.0 mi South 13.8 mph 19.6 mph N/A   Clear
7:35 AM 60.8 °F - 48.2 °F 63% 29.76 in 10.0 mi South 15.0 mph 19.6 mph N/A   Clear
8:15 AM 60.8 °F - 50.0 °F 68% 29.77 in 10.0 mi South 12.7 mph - N/A   Clear
8:35 AM 62.6 °F - 50.0 °F 63% 29.77 in 10.0 mi South 13.8 mph - N/A   Clear
8:55 AM 62.6 °F - 50.0 °F 63% 29.78 in 10.0 mi South 15.0 mph 20.7 mph N/A   Clear
9:15 AM 64.4 °F - 51.8 °F 64% 29.78 in 10.0 mi South 15.0 mph 18.4 mph N/A   Clear
9:35 AM 66.2 °F - 51.8 °F 60% 29.79 in 10.0 mi South 11.5 mph 19.6 mph N/A   Clear
9:55 AM 68.0 °F - 53.6 °F 60% 29.79 in 10.0 mi SSW 15.0 mph - N/A   Clear
10:15 AM 68.0 °F - 51.8 °F 56% 29.80 in 10.0 mi South 12.7 mph 17.3 mph N/A   Clear
10:35 AM 71.6 °F - 53.6 °F 53% 29.80 in 10.0 mi SSW 15.0 mph 18.4 mph N/A   Clear
10:55 AM 71.6 °F - 51.8 °F 50% 29.80 in 10.0 mi SSW 11.5 mph - N/A   Clear
11:15 AM 71.6 °F - 53.6 °F 53% 29.81 in 10.0 mi South 10.4 mph - N/A   Clear
11:35 AM 71.6 °F - 51.8 °F 50% 29.81 in 10.0 mi South 5.8 mph - N/A   Clear
11:55 AM 73.4 °F - 53.6 °F 50% 29.81 in 10.0 mi South 4.6 mph - N/A   Clear
12:15 PM 75.2 °F - 53.6 °F 47% 29.80 in 10.0 mi South 4.6 mph - N/A   Clear
12:35 PM 73.4 °F - 51.8 °F 47% 29.80 in 10.0 mi Calm Calm - N/A   Clear
12:55 PM 77.0 °F - 53.6 °F 44% 29.80 in 10.0 mi SW 4.6 mph - N/A   Clear
1:15 PM 77.0 °F - 53.6 °F 44% 29.79 in 10.0 mi SW 3.5 mph - N/A   Clear
1:35 PM 77.0 °F - 51.8 °F 41% 29.79 in 10.0 mi Calm Calm - N/A   Clear
1:55 PM 78.8 °F - 53.6 °F 42% 29.78 in 10.0 mi ESE 4.6 mph - N/A   Clear
2:15 PM 78.8 °F - 53.6 °F 42% 29.77 in 10.0 mi Calm Calm - N/A   Clear
2:35 PM 78.8 °F - 51.8 °F 39% 29.76 in 10.0 mi SE 9.2 mph - N/A   Clear
2:55 PM 78.8 °F - 51.8 °F 39% 29.75 in 10.0 mi Calm Calm - N/A   Clear
3:15 PM 80.6 °F 80.3 °F 53.6 °F 39% 29.74 in 10.0 mi SSW 4.6 mph - N/A   Clear
3:35 PM 80.6 °F 80.3 °F 53.6 °F 39% 29.73 in 10.0 mi East 4.6 mph - N/A   Clear
3:55 PM 80.6 °F 80.3 °F 53.6 °F 39% 29.73 in 10.0 mi SSW 4.6 mph - N/A   Clear
4:15 PM 80.6 °F 80.3 °F 53.6 °F 39% 29.72 in 10.0 mi South 5.8 mph - N/A   Clear
4:35 PM 80.6 °F 80.3 °F 53.6 °F 39% 29.72 in 10.0 mi South 6.9 mph - N/A   Clear
4:55 PM 80.6 °F 80.3 °F 53.6 °F 39% 29.73 in 10.0 mi SSE 4.6 mph - N/A   Scattered Clouds
5:15 PM 80.6 °F 80.3 °F 53.6 °F 39% 29.72 in 10.0 mi South 4.6 mph - N/A   Clear
5:35 PM 80.6 °F 80.3 °F 53.6 °F 39% 29.72 in 10.0 mi SSE 10.4 mph - N/A   Clear
5:55 PM 80.6 °F 80.5 °F 55.4 °F 42% 29.71 in 10.0 mi South 9.2 mph - N/A   Clear
6:15 PM 80.6 °F 80.5 °F 55.4 °F 42% 29.72 in 10.0 mi SE 10.4 mph - N/A   Scattered Clouds
6:35 PM 78.8 °F - 55.4 °F 44% 29.72 in 10.0 mi SE 10.4 mph - N/A   Scattered Clouds
6:55 PM 77.0 °F - 55.4 °F 47% 29.73 in 10.0 mi SSE 6.9 mph - N/A   Scattered Clouds
7:15 PM 71.6 °F - 51.8 °F 50% 29.74 in 10.0 mi North 12.7 mph 17.3 mph N/A   Clear
7:35 PM 68.0 °F - 51.8 °F 56% 29.75 in 10.0 mi NNE 20.7 mph 26.5 mph N/A   Scattered Clouds
7:55 PM 66.2 °F - 50.0 °F 56% 29.76 in 10.0 mi NNE 16.1 mph 24.2 mph N/A   Scattered Clouds
8:35 PM 62.6 °F - 46.4 °F 55% 29.78 in 10.0 mi NNE 17.3 mph 25.3 mph N/A   Clear
8:55 PM 60.8 °F - 46.4 °F 59% 29.79 in 10.0 mi NNE 16.1 mph 24.2 mph N/A   Clear
9:15 PM 59.0 °F - 46.4 °F 63% 29.80 in 10.0 mi NNE 16.1 mph 24.2 mph N/A   Clear
9:35 PM 59.0 °F - 46.4 °F 63% 29.81 in 10.0 mi NNE 17.3 mph 20.7 mph N/A   Scattered Clouds
9:55 PM 57.2 °F - 44.6 °F 63% 29.82 in 10.0 mi NNE 15.0 mph - N/A   Scattered Clouds
10:15 PM 55.4 °F - 44.6 °F 67% 29.83 in 10.0 mi NNE 13.8 mph 20.7 mph N/A   Clear
10:35 PM 55.4 °F - 44.6 °F 67% 29.83 in 10.0 mi NNE 10.4 mph 17.3 mph N/A   Mostly Cloudy
10:55 PM 55.4 °F - 44.6 °F 67% 29.83 in 10.0 mi NNE 11.5 mph 17.3 mph N/A   Mostly Cloudy
11:15 PM 55.4 °F - 44.6 °F 67% 29.83 in 10.0 mi NE 12.7 mph 18.4 mph N/A   Overcast
11:35 PM 55.4 °F - 44.6 °F 67% 29.83 in 10.0 mi NNE 12.7 mph - N/A   Overcast
11:55 PM 53.6 °F - 42.8 °F 67% 29.82 in 10.0 mi NNE 12.7 mph 18.4 mph N/A   Scattered Clouds